{"data":{"norad_id":36101,"epoch":"2026-09-19T17:24:38.480832Z","epoch_age_seconds":85160,"freshness":"FRESH","line1":"1 36101U 09065A   26262.72544538  .00000108  00000+0  00000+0 0  9994","line2":"2 36101   0.7228  81.1190 0005769  94.6548 134.5150  1.00273259 61651","mean_motion":1.00273259,"eccentricity":0.0005769,"inclination_deg":0.7228,"raan_deg":81.119,"arg_perigee_deg":94.6548,"mean_anomaly_deg":134.515,"bstar":0,"rev_number":6165,"period_min":1436.075793647,"perigee_km":35761.857155058,"apogee_km":35810.506346032,"semimajor_km":42164.318750545,"source":"CELESTRAK","updated_at":"2026-09-20T09:00:35.160830Z"}}